| time (UTC) | temp F | wind direction | speed MPH | gust MPH | rain 1hr in | rain 24hr in | rain mn in | humidity % | barometer mb |
| 20260507060506 | 48 | 92 | 2.0 | 3.0 | 0.00 | 0.00 | 0.00 | 83 | 1017.0 |
| 20260507060006 | 47 | 100 | 3.0 | 7.0 | 0.00 | 0.00 | 0.00 | 83 | 1017.0 |
| 20260507055505 | 47 | 94 | 2.0 | 6.0 | 0.00 | 0.00 | 0.00 | 84 | 1017.0 |
| 20260507054505 | 47 | 89 | 2.0 | 3.0 | 0.00 | 0.00 | 0.00 | 84 | 1017.0 |
| 20260507054013 | 47 | 107 | 0.0 | 3.0 | 0.00 | 0.00 | 0.00 | 84 | 1016.9 |
| 20260507053506 | 47 | 94 | 1.0 | 3.0 | 0.00 | 0.00 | 0.00 | 84 | 1016.9 |
| 20260507053012 | 47 | 101 | 1.0 | 3.0 | 0.00 | 0.00 | 0.00 | 84 | 1016.9 |
| 20260507051505 | 47 | 105 | 1.0 | 3.0 | 0.00 | 0.00 | 0.00 | 84 | 1016.8 |
| 20260507051012 | 47 | 85 | 2.0 | 3.0 | 0.00 | 0.00 | 0.00 | 84 | 1016.7 |
| 20260507050506 | 47 | 114 | 2.0 | 3.0 | 0.00 | 0.00 | 0.00 | 84 | 1016.7 |
| 20260507050006 | 47 | 102 | 2.0 | 3.0 | 0.00 | 0.00 | 0.00 | 84 | 1016.7 |
| 20260507045505 | 46 | 96 | 3.0 | 6.0 | 0.00 | 0.00 | 0.00 | 85 | 1016.7 |
| 20260507045012 | 46 | 101 | 2.0 | 6.0 | 0.00 | 0.00 | 0.00 | 85 | 1016.6 |
| 20260507044506 | 46 | 110 | 2.0 | 3.0 | 0.00 | 0.00 | 0.00 | 85 | 1016.6 |
| 20260507044012 | 46 | 138 | 2.0 | 3.0 | 0.00 | 0.00 | 0.00 | 86 | 1016.6 |
| 20260507043505 | 46 | 94 | 2.0 | 6.0 | 0.00 | 0.00 | 0.00 | 86 | 1016.6 |
| 20260507043012 | 46 | 130 | 1.0 | 3.0 | 0.00 | 0.00 | 0.00 | 87 | 1016.6 |
| 20260507042505 | 46 | 108 | 2.0 | 6.0 | 0.00 | 0.00 | 0.00 | 87 | 1016.6 |
| 20260507042012 | 45 | 96 | 2.0 | 3.0 | 0.00 | 0.00 | 0.00 | 87 | 1016.6 |
| 20260507041505 | 45 | 94 | 0.0 | 3.0 | 0.00 | 0.00 | 0.00 | 87 | 1016.7 |
| 20260507041013 | 45 | 101 | 0.0 | 2.0 | 0.00 | 0.00 | 0.00 | 87 | 1016.6 |
| 20260507040505 | 45 | 101 | 1.0 | 1.0 | 0.00 | 0.00 | 0.00 | 87 | 1016.7 |
| 20260507040005 | 45 | 101 | 0.0 | 1.0 | 0.00 | 0.00 | 0.00 | 87 | 1016.7 |
| 20260507035505 | 45 | 101 | 0.0 | 2.0 | 0.00 | 0.00 | 0.00 | 87 | 1016.6 |
| 20260507035012 | 45 | 101 | 1.0 | 3.0 | 0.00 | 0.00 | 0.00 | 87 | 1016.6 |
| 20260507034505 | 45 | 101 | 0.0 | 3.0 | 0.00 | 0.00 | 0.00 | 86 | 1016.6 |
| 20260507034012 | 45 | 93 | 1.0 | 2.0 | 0.00 | 0.00 | 0.00 | 86 | 1016.5 |
| 20260507033505 | 45 | 103 | 1.0 | 3.0 | 0.00 | 0.00 | 0.00 | 86 | 1016.5 |
| 20260507033012 | 46 | 55 | 0.0 | 1.0 | 0.00 | 0.00 | 0.00 | 86 | 1016.5 |
| 20260507032505 | 46 | 55 | 0.0 | 1.0 | 0.00 | 0.00 | 0.00 | 86 | 1016.5 |
| 20260507032012 | 46 | 55 | 0.0 | 2.0 | 0.00 | 0.00 | 0.00 | 86 | 1016.5 |
| 20260507031505 | 46 | 55 | 0.0 | 1.0 | 0.00 | 0.00 | 0.00 | 86 | 1016.5 |
| 20260507031012 | 46 | 55 | 0.0 | 1.0 | 0.00 | 0.00 | 0.00 | 86 | 1016.5 |
| 20260507030505 | 46 | 55 | 0.0 | 3.0 | 0.00 | 0.00 | 0.00 | 85 | 1016.5 |
| 20260507030005 | 46 | 55 | 1.0 | 2.0 | 0.00 | 0.00 | 0.00 | 85 | 1016.6 |
| 20260507025012 | 47 | 55 | 0.0 | 0.0 | 0.00 | 0.00 | 0.00 | 85 | 1016.6 |
| 20260507024012 | 47 | 55 | 0.0 | 1.0 | 0.00 | 0.00 | 0.00 | 85 | 1016.5 |
| 20260507023505 | 47 | 55 | 1.0 | 2.0 | 0.00 | 0.00 | 0.00 | 85 | 1016.5 |
| 20260507023013 | 47 | 55 | 0.0 | 1.0 | 0.00 | 0.00 | 0.00 | 85 | 1016.5 |
| 20260507022505 | 47 | 55 | 1.0 | 2.0 | 0.00 | 0.00 | 0.00 | 85 | 1016.5 |
| 20260507022013 | 47 | 55 | 0.0 | 2.0 | 0.00 | 0.00 | 0.00 | 85 | 1016.5 |
| 20260507021505 | 47 | 55 | 1.0 | 3.0 | 0.00 | 0.00 | 0.00 | 85 | 1016.5 |
| 20260507021012 | 47 | 55 | 0.0 | 2.0 | 0.00 | 0.00 | 0.00 | 85 | 1016.5 |
| 20260507020505 | 47 | 55 | 0.0 | 1.0 | 0.00 | 0.00 | 0.00 | 85 | 1016.4 |
| 20260507020005 | 47 | 55 | 0.0 | 1.0 | 0.00 | 0.00 | 0.00 | 85 | 1016.3 |
| 20260507015505 | 47 | 55 | 0.0 | 2.0 | 0.00 | 0.00 | 0.00 | 85 | 1016.3 |
| 20260507015012 | 47 | 51 | 0.0 | 2.0 | 0.00 | 0.00 | 0.00 | 86 | 1016.3 |
| 20260507014505 | 47 | 78 | 0.0 | 3.0 | 0.00 | 0.00 | 0.00 | 85 | 1016.4 |
| 20260507014012 | 47 | 60 | 1.0 | 3.0 | 0.00 | 0.00 | 0.00 | 85 | 1016.4 |
| 20260507013505 | 47 | 74 | 2.0 | 3.0 | 0.00 | 0.00 | 0.00 | 85 | 1016.4 |
| 20260507013012 | 47 | 36 | 2.0 | 3.0 | 0.00 | 0.00 | 0.00 | 85 | 1016.3 |
| 20260507012505 | 47 | 26 | 2.0 | 3.0 | 0.00 | 0.00 | 0.00 | 85 | 1016.3 |
| 20260507012012 | 47 | 23 | 2.0 | 5.0 | 0.00 | 0.00 | 0.00 | 85 | 1016.4 |
| 20260507011505 | 47 | 13 | 1.0 | 3.0 | 0.00 | 0.00 | 0.00 | 85 | 1016.3 |
| 20260507011012 | 47 | 17 | 0.0 | 3.0 | 0.00 | 0.00 | 0.00 | 85 | 1016.3 |
| 20260507010505 | 47 | 40 | 0.0 | 2.0 | 0.00 | 0.00 | 0.00 | 85 | 1016.3 |
| 20260507010005 | 47 | 40 | 0.0 | 2.0 | 0.00 | 0.00 | 0.00 | 85 | 1016.3 |
| 20260507005505 | 47 | 40 | 1.0 | 1.0 | 0.00 | 0.00 | 0.00 | 85 | 1016.3 |
| 20260507005012 | 47 | 40 | 1.0 | 3.0 | 0.00 | 0.00 | 0.00 | 85 | 1016.3 |
| 20260507004504 | 47 | 32 | 1.0 | 2.0 | 0.00 | 0.00 | 0.00 | 84 | 1016.3 |
| 20260507004012 | 47 | 20 | 2.0 | 3.0 | 0.00 | 0.00 | 0.00 | 84 | 1016.3 |
| 20260507003505 | 47 | 0 | 0.0 | 3.0 | 0.00 | 0.00 | 0.00 | 84 | 1016.5 |
| 20260507003012 | 47 | 50 | 1.0 | 2.0 | 0.00 | 0.00 | 0.00 | 84 | 1016.3 |
| 20260507002505 | 47 | 50 | 0.0 | 2.0 | 0.00 | 0.00 | 0.00 | 84 | 1016.4 |
| 20260507002012 | 47 | 49 | 1.0 | 3.0 | 0.00 | 0.00 | 0.00 | 84 | 1016.4 |
| 20260507001012 | 47 | 47 | 1.0 | 20.0 | 0.00 | 0.00 | 0.00 | 84 | 1016.4 |
| 20260507000505 | 48 | 47 | 1.0 | 3.0 | 0.00 | 0.00 | 0.00 | 83 | 1016.4 |
| 20260507000005 | 48 | 47 | 1.0 | 3.0 | 0.00 | 0.00 | 0.00 | 83 | 1016.4 |
| 20260506235505 | 48 | 45 | 2.0 | 3.0 | 0.00 | 0.00 | 0.00 | 83 | 1016.4 |
| 20260506234012 | 48 | 97 | 1.0 | 3.0 | 0.00 | 0.00 | 0.00 | 83 | 1016.3 |
| 20260506233505 | 48 | 63 | 1.0 | 3.0 | 0.00 | 0.00 | 0.00 | 83 | 1016.3 |
| 20260506232505 | 48 | 59 | 1.0 | 3.0 | 0.00 | 0.00 | 0.00 | 82 | 1016.3 |
| 20260506232012 | 48 | 67 | 2.0 | 3.0 | 0.00 | 0.00 | 0.00 | 82 | 1016.4 |
| 20260506230505 | 49 | 92 | 1.0 | 3.0 | 0.00 | 0.00 | 0.00 | 81 | 1016.4 |
| 20260506230005 | 49 | 42 | 1.0 | 3.0 | 0.00 | 0.00 | 0.00 | 81 | 1016.4 |
| 20260506225505 | 49 | 48 | 0.0 | 3.0 | 0.00 | 0.00 | 0.00 | 81 | 1016.3 |
| 20260506225012 | 49 | 52 | 3.0 | 5.0 | 0.00 | 0.00 | 0.00 | 81 | 1016.3 |
| 20260506224505 | 49 | 72 | 2.0 | 3.0 | 0.00 | 0.00 | 0.00 | 81 | 1016.3 |
| 20260506224012 | 49 | 54 | 1.0 | 3.0 | 0.00 | 0.00 | 0.00 | 81 | 1016.3 |
| 20260506223505 | 49 | 50 | 0.0 | 3.0 | 0.00 | 0.00 | 0.00 | 80 | 1016.2 |
| 20260506223012 | 49 | 69 | 2.0 | 3.0 | 0.00 | 0.00 | 0.00 | 80 | 1016.1 |
| 20260506222505 | 49 | 37 | 1.0 | 5.0 | 0.00 | 0.00 | 0.00 | 80 | 1016.1 |
| 20260506222012 | 49 | 55 | 2.0 | 5.0 | 0.00 | 0.00 | 0.00 | 80 | 1016.1 |
| 20260506221505 | 49 | 38 | 1.0 | 5.0 | 0.00 | 0.00 | 0.00 | 80 | 1016.1 |
| 20260506221012 | 49 | 58 | 3.0 | 6.0 | 0.00 | 0.00 | 0.00 | 79 | 1016.1 |
| 20260506220505 | 49 | 63 | 1.0 | 6.0 | 0.00 | 0.00 | 0.00 | 79 | 1016.1 |
| 20260506220005 | 49 | 53 | 3.0 | 8.0 | 0.00 | 0.00 | 0.00 | 79 | 1016.1 |
| 20260506215505 | 49 | 54 | 3.0 | 8.0 | 0.00 | 0.00 | 0.00 | 79 | 1016.1 |
| 20260506215012 | 49 | 57 | 2.0 | 12.0 | 0.00 | 0.00 | 0.00 | 78 | 1016.0 |
| 20260506214505 | 49 | 59 | 3.0 | 8.0 | 0.00 | 0.00 | 0.00 | 78 | 1016.0 |
| 20260506213012 | 50 | 25 | 3.0 | 6.0 | 0.00 | 0.00 | 0.00 | 77 | 1016.0 |
| 20260506212504 | 50 | 42 | 2.0 | 6.0 | 0.00 | 0.00 | 0.00 | 77 | 1016.0 |
| 20260506212012 | 50 | 45 | 2.0 | 10.0 | 0.00 | 0.00 | 0.00 | 76 | 1016.0 |
| 20260506211012 | 50 | 45 | 5.0 | 10.0 | 0.00 | 0.00 | 0.00 | 75 | 1016.0 |
| 20260506210505 | 50 | 29 | 2.0 | 3.0 | 0.00 | 0.00 | 0.00 | 75 | 1015.9 |
| 20260506210005 | 50 | 55 | 3.0 | 10.0 | 0.00 | 0.00 | 0.00 | 74 | 1015.9 |
| 20260506205504 | 50 | 36 | 2.0 | 10.0 | 0.00 | 0.00 | 0.00 | 74 | 1015.9 |
| 20260506205012 | 50 | 43 | 2.0 | 6.0 | 0.00 | 0.00 | 0.00 | 74 | 1015.9 |
| 20260506204504 | 50 | 43 | 5.0 | 9.0 | 0.00 | 0.00 | 0.00 | 73 | 1015.9 |
| 20260506204012 | 51 | 33 | 3.0 | 12.0 | 0.00 | 0.00 | 0.00 | 73 | 1015.9 |
| 20260506203505 | 51 | 59 | 5.0 | 12.0 | 0.00 | 0.00 | 0.00 | 72 | 1015.9 |
| 20260506202505 | 51 | 42 | 5.0 | 12.0 | 0.00 | 0.00 | 0.00 | 70 | 1015.9 |
| 20260506202011 | 51 | 41 | 4.0 | 10.0 | 0.00 | 0.00 | 0.00 | 70 | 1015.9 |
| 20260506201012 | 52 | 41 | 3.0 | 6.0 | 0.00 | 0.00 | 0.00 | 68 | 1015.7 |
| 20260506200505 | 52 | 41 | 4.0 | 9.0 | 0.00 | 0.00 | 0.00 | 68 | 1015.7 |
| 20260506200004 | 52 | 37 | 3.0 | 10.0 | 0.00 | 0.00 | 0.00 | 69 | 1015.5 |
| 20260506195504 | 52 | 37 | 2.0 | 7.0 | 0.00 | 0.00 | 0.00 | 68 | 1015.5 |
| 20260506195012 | 52 | 35 | 2.0 | 5.0 | 0.00 | 0.00 | 0.00 | 68 | 1015.5 |
| 20260506194504 | 52 | 36 | 2.0 | 8.0 | 0.00 | 0.00 | 0.00 | 68 | 1015.4 |
| 20260506194012 | 52 | 49 | 2.0 | 3.0 | 0.00 | 0.00 | 0.00 | 67 | 1015.3 |
| 20260506193504 | 52 | 49 | 2.0 | 5.0 | 0.00 | 0.00 | 0.00 | 67 | 1015.3 |
| 20260506193011 | 52 | 69 | 2.0 | 5.0 | 0.00 | 0.00 | 0.00 | 67 | 1015.2 |
| 20260506192504 | 52 | 57 | 3.0 | 8.0 | 0.00 | 0.00 | 0.00 | 66 | 1015.2 |
| 20260506192011 | 53 | 38 | 3.0 | 9.0 | 0.00 | 0.00 | 0.00 | 65 | 1015.2 |
| 20260506191504 | 53 | 62 | 2.0 | 7.0 | 0.00 | 0.00 | 0.00 | 64 | 1015.2 |
| 20260506191012 | 53 | 55 | 3.0 | 12.0 | 0.00 | 0.00 | 0.00 | 64 | 1015.1 |
| 20260506190005 | 53 | 44 | 2.0 | 5.0 | 0.00 | 0.00 | 0.00 | 63 | 1015.1 |
| 20260506185504 | 53 | 60 | 4.0 | 9.0 | 0.00 | 0.00 | 0.00 | 63 | 1015.0 |
| 20260506185012 | 53 | 52 | 3.0 | 7.0 | 0.00 | 0.00 | 0.00 | 62 | 1014.9 |
| 20260506184505 | 53 | 61 | 2.0 | 5.0 | 0.00 | 0.00 | 0.00 | 62 | 1014.9 |
| 20260506184011 | 53 | 51 | 4.0 | 9.0 | 0.00 | 0.00 | 0.00 | 62 | 1015.0 |
| 20260506183505 | 54 | 36 | 5.0 | 12.0 | 0.00 | 0.00 | 0.00 | 62 | 1014.9 |
| 20260506183012 | 54 | 50 | 3.0 | 9.0 | 0.00 | 0.00 | 0.00 | 62 | 1014.9 |
| 20260506182504 | 54 | 50 | 3.0 | 9.0 | 0.00 | 0.00 | 0.00 | 62 | 1014.8 |
| 20260506182012 | 54 | 52 | 2.0 | 8.0 | 0.00 | 0.00 | 0.00 | 62 | 1014.7 |
| 20260506181504 | 54 | 50 | 5.0 | 12.0 | 0.00 | 0.00 | 0.00 | 61 | 1014.7 |
| 20260506180505 | 54 | 41 | 4.0 | 12.0 | 0.00 | 0.00 | 0.00 | 62 | 1014.6 |
| 20260506180005 | 54 | 43 | 2.0 | 9.0 | 0.00 | 0.00 | 0.00 | 61 | 1014.6 |
| 20260506175504 | 55 | 29 | 4.0 | 10.0 | 0.00 | 0.00 | 0.00 | 61 | 1014.4 |
| 20260506175011 | 55 | 39 | 6.0 | 12.0 | 0.00 | 0.00 | 0.00 | 60 | 1014.3 |
| 20260506174011 | 55 | 71 | 4.0 | 10.0 | 0.00 | 0.00 | 0.00 | 57 | 1014.2 |
| 20260506173505 | 55 | 53 | 3.0 | 6.0 | 0.00 | 0.00 | 0.00 | 57 | 1014.1 |
| 20260506173012 | 55 | 30 | 4.0 | 9.0 | 0.00 | 0.00 | 0.00 | 56 | 1014.1 |
| 20260506172011 | 55 | 39 | 5.0 | 12.0 | 0.00 | 0.00 | 0.00 | 56 | 1014.1 |
| 20260506171504 | 55 | 59 | 4.0 | 9.0 | 0.00 | 0.00 | 0.00 | 56 | 1014.2 |
| 20260506171011 | 55 | 42 | 4.0 | 13.0 | 0.00 | 0.00 | 0.00 | 56 | 1014.1 |
| 20260506170504 | 56 | 57 | 4.0 | 9.0 | 0.00 | 0.00 | 0.00 | 55 | 1014.1 |
| 20260506170004 | 56 | 48 | 2.0 | 8.0 | 0.00 | 0.00 | 0.00 | 55 | 1014.1 |
| 20260506165504 | 56 | 76 | 2.0 | 6.0 | 0.00 | 0.00 | 0.00 | 55 | 1014.1 |
| 20260506164504 | 56 | 79 | 2.0 | 8.0 | 0.00 | 0.00 | 0.00 | 54 | 1014.1 |
| 20260506164011 | 56 | 65 | 3.0 | 7.0 | 0.00 | 0.00 | 0.00 | 54 | 1014.0 |
| 20260506163504 | 57 | 69 | 2.0 | 6.0 | 0.00 | 0.00 | 0.00 | 56 | 1014.2 |
| 20260506163011 | 57 | 40 | 3.0 | 7.0 | 0.00 | 0.00 | 0.00 | 55 | 1014.2 |
| 20260506162504 | 57 | 41 | 5.0 | 12.0 | 0.00 | 0.00 | 0.00 | 54 | 1014.1 |
| 20260506162011 | 57 | 85 | 3.0 | 8.0 | 0.00 | 0.00 | 0.00 | 53 | 1014.1 |
| 20260506161504 | 58 | 67 | 5.0 | 9.0 | 0.00 | 0.00 | 0.00 | 53 | 1014.1 |
| 20260506161011 | 57 | 43 | 3.0 | 12.0 | 0.00 | 0.00 | 0.00 | 55 | 1014.1 |
| 20260506160004 | 57 | 43 | 3.0 | 9.0 | 0.00 | 0.00 | 0.00 | 57 | 1014.1 |
| 20260506155504 | 57 | 58 | 5.0 | 12.0 | 0.00 | 0.00 | 0.00 | 57 | 1014.2 |
| 20260506155011 | 56 | 56 | 2.0 | 6.0 | 0.00 | 0.00 | 0.00 | 58 | 1014.1 |
| 20260506154507 | 56 | 36 | 3.0 | 9.0 | 0.00 | 0.00 | 0.00 | 58 | 1014.2 |
| 20260506154011 | 56 | 33 | 3.0 | 9.0 | 0.00 | 0.00 | 0.00 | 58 | 1014.2 |
| 20260506153504 | 56 | 46 | 5.0 | 10.0 | 0.00 | 0.00 | 0.00 | 59 | 1014.2 |
| 20260506153011 | 56 | 57 | 3.0 | 7.0 | 0.00 | 0.00 | 0.00 | 60 | 1014.2 |
| 20260506152504 | 56 | 39 | 2.0 | 7.0 | 0.00 | 0.00 | 0.00 | 58 | 1014.2 |
| 20260506152011 | 56 | 37 | 3.0 | 9.0 | 0.00 | 0.00 | 0.00 | 59 | 1014.2 |
| 20260506151504 | 56 | 36 | 3.0 | 9.0 | 0.00 | 0.00 | 0.00 | 59 | 1014.2 |
| 20260506151011 | 56 | 60 | 2.0 | 9.0 | 0.00 | 0.00 | 0.00 | 59 | 1014.2 |
| 20260506150505 | 56 | 46 | 2.0 | 8.0 | 0.00 | 0.00 | 0.00 | 60 | 1014.2 |
| 20260506150005 | 56 | 20 | 3.0 | 5.0 | 0.00 | 0.00 | 0.00 | 62 | 1014.2 |
| 20260506145504 | 56 | 56 | 2.0 | 7.0 | 0.00 | 0.00 | 0.00 | 61 | 1014.2 |
| 20260506145011 | 56 | 26 | 3.0 | 7.0 | 0.00 | 0.00 | 0.00 | 61 | 1014.2 |
| 20260506144504 | 56 | 56 | 1.0 | 5.0 | 0.00 | 0.00 | 0.00 | 62 | 1014.3 |
| 20260506144011 | 55 | 26 | 3.0 | 7.0 | 0.00 | 0.00 | 0.00 | 62 | 1014.3 |
| 20260506143011 | 55 | 44 | 5.0 | 13.0 | 0.00 | 0.00 | 0.00 | 62 | 1014.3 |
| 20260506142504 | 55 | 55 | 2.0 | 9.0 | 0.00 | 0.00 | 0.00 | 64 | 1014.4 |
| 20260506142011 | 55 | 41 | 5.0 | 9.0 | 0.00 | 0.00 | 0.00 | 63 | 1014.3 |
| 20260506141504 | 55 | 47 | 4.0 | 12.0 | 0.00 | 0.00 | 0.00 | 63 | 1014.3 |
| 20260506141012 | 55 | 27 | 6.0 | 12.0 | 0.00 | 0.00 | 0.00 | 63 | 1014.4 |
| 20260506140504 | 55 | 33 | 5.0 | 12.0 | 0.00 | 0.00 | 0.00 | 63 | 1014.4 |
| 20260506140005 | 55 | 40 | 6.0 | 12.0 | 0.00 | 0.00 | 0.00 | 63 | 1014.4 |
| 20260506135504 | 55 | 66 | 5.0 | 12.0 | 0.00 | 0.00 | 0.00 | 63 | 1014.4 |
| 20260506135011 | 55 | 56 | 3.0 | 8.0 | 0.00 | 0.00 | 0.00 | 63 | 1014.4 |
| 20260506134506 | 55 | 44 | 3.0 | 10.0 | 0.00 | 0.00 | 0.00 | 63 | 1014.5 |
| 20260506134012 | 56 | 55 | 3.0 | 13.0 | 0.00 | 0.00 | 0.00 | 63 | 1014.4 |
| 20260506133506 | 55 | 37 | 5.0 | 12.0 | 0.00 | 0.00 | 0.00 | 63 | 1014.5 |
| 20260506133013 | 56 | 56 | 3.0 | 7.0 | 0.00 | 0.00 | 0.00 | 62 | 1014.5 |
| 20260506132506 | 56 | 69 | 5.0 | 12.0 | 0.00 | 0.00 | 0.00 | 61 | 1014.5 |
| 20260506132013 | 56 | 74 | 4.0 | 13.0 | 0.00 | 0.00 | 0.00 | 61 | 1014.5 |
| 20260506131505 | 56 | 60 | 3.0 | 8.0 | 0.00 | 0.00 | 0.00 | 62 | 1014.5 |
| 20260506131013 | 56 | 31 | 4.0 | 9.0 | 0.00 | 0.00 | 0.00 | 61 | 1014.5 |
| 20260506130506 | 56 | 31 | 5.0 | 10.0 | 0.00 | 0.00 | 0.00 | 61 | 1014.5 |
| 20260506130006 | 56 | 58 | 5.0 | 13.0 | 0.00 | 0.00 | 0.00 | 61 | 1014.5 |
| 20260506125506 | 56 | 69 | 2.0 | 8.0 | 0.00 | 0.00 | 0.00 | 62 | 1014.5 |
| 20260506125013 | 56 | 54 | 5.0 | 12.0 | 0.00 | 0.00 | 0.00 | 61 | 1014.5 |
| 20260506124013 | 56 | 59 | 7.0 | 13.0 | 0.00 | 0.00 | 0.00 | 62 | 1014.4 |
| 20260506123510 | 56 | 38 | 6.0 | 12.0 | 0.00 | 0.00 | 0.00 | 62 | 1014.4 |
| 20260506123012 | 55 | 63 | 5.0 | 12.0 | 0.00 | 0.00 | 0.00 | 61 | 1014.4 |
| 20260506122505 | 56 | 42 | 9.0 | 14.0 | 0.00 | 0.00 | 0.00 | 61 | 1014.4 |
| 20260506122012 | 57 | 47 | 7.0 | 17.0 | 0.00 | 0.00 | 0.00 | 60 | 1014.3 |
| 20260506121506 | 57 | 48 | 6.0 | 18.0 | 0.00 | 0.00 | 0.00 | 61 | 1014.3 |
| 20260506121013 | 56 | 34 | 7.0 | 12.0 | 0.00 | 0.00 | 0.00 | 59 | 1014.3 |
| 20260506120506 | 56 | 44 | 7.0 | 12.0 | 0.00 | 0.00 | 0.00 | 60 | 1014.3 |
| 20260506115506 | 56 | 40 | 5.0 | 12.0 | 0.00 | 0.00 | 0.00 | 64 | 1014.5 |
| 20260506115012 | 55 | 70 | 5.0 | 15.0 | 0.00 | 0.00 | 0.00 | 62 | 1014.5 |
| 20260506114506 | 55 | 27 | 5.0 | 12.0 | 0.00 | 0.00 | 0.00 | 62 | 1014.4 |
| 20260506114013 | 55 | 40 | 7.0 | 12.0 | 0.00 | 0.00 | 0.00 | 62 | 1014.5 |
| 20260506113013 | 55 | 49 | 5.0 | 12.0 | 0.00 | 0.00 | 0.00 | 62 | 1014.4 |
| 20260506112505 | 55 | 30 | 6.0 | 18.0 | 0.00 | 0.00 | 0.00 | 62 | 1014.4 |
| 20260506112013 | 55 | 65 | 3.0 | 10.0 | 0.00 | 0.00 | 0.00 | 61 | 1014.4 |
| 20260506111505 | 55 | 62 | 3.0 | 12.0 | 0.00 | 0.00 | 0.00 | 63 | 1014.5 |
| 20260506110506 | 54 | 31 | 4.0 | 10.0 | 0.00 | 0.00 | 0.00 | 62 | 1014.4 |
| 20260506110006 | 54 | 45 | 6.0 | 16.0 | 0.00 | 0.00 | 0.00 | 62 | 1014.4 |
| 20260506105505 | 54 | 34 | 6.0 | 12.0 | 0.00 | 0.00 | 0.00 | 61 | 1014.4 |
| 20260506105015 | 55 | 34 | 7.0 | 15.0 | 0.00 | 0.00 | 0.00 | 60 | 1014.5 |
| 20260506104012 | 55 | 15 | 5.0 | 10.0 | 0.00 | 0.00 | 0.00 | 61 | 1014.4 |
| 20260506103013 | 54 | 29 | 5.0 | 13.0 | 0.00 | 0.00 | 0.00 | 60 | 1014.5 |
| 20260506102506 | 54 | 40 | 5.0 | 12.0 | 0.00 | 0.00 | 0.00 | 61 | 1014.4 |
| 20260506102012 | 54 | 24 | 5.0 | 13.0 | 0.00 | 0.00 | 0.00 | 61 | 1014.6 |
| 20260506101506 | 54 | 37 | 7.0 | 13.0 | 0.00 | 0.00 | 0.00 | 60 | 1014.5 |
| 20260506101013 | 54 | 42 | 7.0 | 12.0 | 0.00 | 0.00 | 0.00 | 61 | 1014.5 |
| 20260506100505 | 54 | 78 | 5.0 | 12.0 | 0.00 | 0.00 | 0.00 | 60 | 1014.5 |
| 20260506100005 | 54 | 32 | 6.0 | 15.0 | 0.00 | 0.00 | 0.00 | 60 | 1014.6 |
| 20260506095506 | 54 | 20 | 5.0 | 10.0 | 0.00 | 0.00 | 0.00 | 61 | 1014.6 |
| 20260506095012 | 54 | 48 | 6.0 | 13.0 | 0.00 | 0.00 | 0.00 | 61 | 1014.6 |
| 20260506094505 | 54 | 75 | 2.0 | 9.0 | 0.00 | 0.00 | 0.00 | 60 | 1014.6 |
| 20260506094013 | 55 | 55 | 6.0 | 14.0 | 0.00 | 0.00 | 0.00 | 60 | 1014.7 |
| 20260506093506 | 54 | 42 | 6.0 | 12.0 | 0.00 | 0.00 | 0.00 | 60 | 1014.5 |
| 20260506092506 | 54 | 32 | 8.0 | 16.0 | 0.00 | 0.00 | 0.00 | 59 | 1014.5 |
| 20260506092013 | 54 | 35 | 5.0 | 16.0 | 0.00 | 0.00 | 0.00 | 61 | 1014.5 |
| 20260506091506 | 54 | 25 | 7.0 | 20.0 | 0.00 | 0.00 | 0.00 | 59 | 1014.4 |
| 20260506091013 | 55 | 55 | 3.0 | 12.0 | 0.00 | 0.00 | 0.00 | 62 | 1014.4 |
| 20260506090506 | 55 | 70 | 6.0 | 14.0 | 0.00 | 0.00 | 0.00 | 62 | 1014.3 |
| 20260506090006 | 54 | 73 | 5.0 | 13.0 | 0.00 | 0.00 | 0.00 | 63 | 1014.3 |
| 20260506085521 | 54 | 40 | 4.0 | 10.0 | 0.00 | 0.00 | 0.00 | 63 | 1014.3 |
| 20260506085013 | 54 | 66 | 5.0 | 13.0 | 0.00 | 0.00 | 0.00 | 62 | 1014.1 |
| 20260506084506 | 54 | 77 | 3.0 | 13.0 | 0.00 | 0.00 | 0.00 | 62 | 1014.3 |
| 20260506084012 | 54 | 65 | 7.0 | 14.0 | 0.00 | 0.00 | 0.00 | 61 | 1014.2 |
| 20260506083506 | 54 | 40 | 3.0 | 13.0 | 0.00 | 0.00 | 0.00 | 62 | 1014.1 |
| 20260506083013 | 54 | 55 | 5.0 | 12.0 | 0.00 | 0.00 | 0.00 | 64 | 1014.0 |
| 20260506081505 | 53 | 43 | 5.0 | 9.0 | 0.00 | 0.00 | 0.00 | 66 | 1014.1 |
| 20260506080506 | 52 | 44 | 3.0 | 16.0 | 0.00 | 0.00 | 0.00 | 68 | 1014.1 |
| 20260506073506 | 51 | 29 | 6.0 | 13.0 | 0.00 | 0.00 | 0.00 | 69 | 1014.1 |
| 20260506072506 | 51 | 51 | 6.0 | 12.0 | 0.00 | 0.00 | 0.00 | 70 | 1014.1 |
| 20260506071506 | 51 | 39 | 6.0 | 15.0 | 0.00 | 0.00 | 0.00 | 71 | 1014.1 |
| 20260506071013 | 50 | 40 | 4.0 | 12.0 | 0.00 | 0.00 | 0.00 | 72 | 1014.1 |
| 20260506070506 | 50 | 60 | 4.0 | 16.0 | 0.00 | 0.00 | 0.00 | 72 | 1013.9 |
| 20260506062505 | 48 | 43 | 5.0 | 12.0 | 0.00 | 0.00 | 0.00 | 77 | 1013.9 |
| 20260506062012 | 48 | 64 | 5.0 | 12.0 | 0.00 | 0.00 | 0.00 | 77 | 1014.0 |
| 20260506061505 | 47 | 49 | 4.0 | 10.0 | 0.00 | 0.00 | 0.00 | 78 | 1014.0 |
| 20260506061012 | 47 | 50 | 5.0 | 12.0 | 0.00 | 0.00 | 0.00 | 78 | 1014.0 |